QPF
0.00 0.01 0.01 0.02 0.02 0.03 0.02 0.02 0.02 0.02 0.02 0.02 0.02 0.01 0.01 0.01 0.02 0.02 0.04 0.03 0.02 0.02 0.02 0.04 0.06 0.05 0.05 0.05 0.04 0.04 0.04 0.03 0.02 0.02 0.02 0.02 0.03 0.03 0.03 0.04 0.04 0.04 0.03
0.01 0.01 0.01 0.01 0.01 0.01 0.02 0.02 0.02 0.02 0.03 0.03 0.02 0.02 0.02 0.01 0.01 0.02 0.03 0.03 0.02 0.02 0.01 0.03 0.05 0.04 0.04 0.04 0.04 0.03 0.03 0.02 0.01 0.01 0.01 0.01 0.01 0.02 0.03 0.03 0.03 0.03 0.04
0.01 0.01 0.01 0.02 0.01 0.01 0.01 0.02 0.01 0.02 0.02 0.01 0.01 0.01 0.02 0.01 0.01 0.02 0.03 0.03 0.02 0.01 0.01 0.01 0.03 0.04 0.04 0.04 0.03 0.02 0.02 0.02 0.01 0.01 0.01 0.01 0.02 0.03 0.03 0.04 0.05 0.04 0.03
0.01 0.02 0.02 0.03 0.03 0.03 0.02 0.02 0.02 0.03 0.02 0.01 0.01 0.01 0.01 0.01 0.01 0.02 0.02 0.02 0.01 0.01 0.00 0.01 0.02 0.03 0.04 0.06 0.05 0.03 0.03 0.03 0.03 0.02 0.02 0.03 0.04 0.05 0.06 0.04 0.04 0.04 0.04
0.01 0.02 0.02 0.03 0.04 0.04 0.03 0.03 0.05 0.04 0.02 0.02 0.01 0.01 0.01 0.01 0.02 0.02 0.01 0.01 0.00 0.00 0.01 0.01 0.02 0.03 0.05 0.05 0.04 0.04 0.04 0.03 0.03 0.03 0.03 0.04 0.04 0.05 0.05 0.05 0.04 0.04 0.03
0.01 0.02 0.02 0.02 0.02 0.02 0.03 0.05 0.05 0.03 0.02 0.02 0.02 0.02 0.02 0.02 0.02 0.01 0.01 0.00 0.01 0.01 0.01 0.01 0.01 0.02 0.02 0.03 0.04 0.04 0.03 0.03 0.03 0.03 0.04 0.04 0.03 0.03 0.04 0.05 0.07 0.06 0.04
0.01 0.03 0.02 0.01 0.02 0.01 0.01 0.03 0.03 0.03 0.03 0.02 0.02 0.01 0.01 0.01 0.02 0.02 0.01 0.01 0.01 0.00 0.01 0.01 0.01 0.01 0.01 0.01 0.03 0.04 0.03 0.03 0.03 0.03 0.02 0.02 0.03 0.02 0.03 0.04 0.06 0.07 0.05
0.01 0.01 0.01 0.01 0.01 0.01 0.01 0.01 0.02 0.03 0.03 0.02 0.01 0.01 0.01 0.01 0.01 0.01 0.01 0.00 0.00 0.00 0.00 0.00 0.01 0.01 0.01 0.01 0.02 0.03 0.03 0.03 0.04 0.03 0.02 0.02 0.02 0.02 0.03 0.03 0.04 0.06 0.07
0.01 0.01 0.01 0.01 0.01 0.01 0.01 0.01 0.01 0.02 0.02 0.02 0.02 0.03 0.02 0.01 0.01 0.01 0.00 0.00 0.00 0.00 0.00 0.00 0.01 0.01 0.01 0.02 0.02 0.01 0.01 0.02 0.03 0.03 0.02 0.02 0.02 0.02 0.02 0.03 0.03 0.04 0.04
0.04 0.03 0.03 0.03 0.02 0.02 0.02 0.02 0.01 0.02 0.02 0.02 0.02 0.02 0.02 0.01 0.01 0.01 0.01 0.01 0.01 0.01 0.01 0.01 0.01 0.02 0.02 0.01 0.01 0.01 0.01 0.01 0.02 0.02 0.02 0.02 0.02 0.02 0.02 0.02 0.02 0.03 0.03
0.07 0.04 0.04 0.03 0.03 0.02 0.03 0.03 0.02 0.02 0.02 0.02 0.02 0.02 0.03 0.03 0.03 0.03 0.03 0.02 0.01 0.01 0.01 0.01 0.01 0.02 0.01 0.01 0.01 0.01 0.01 0.01 0.01 0.01 0.02 0.03 0.03 0.03 0.03 0.03 0.02 0.02 0.02
0.06 0.06 0.06 0.05 0.04 0.03 0.02 0.03 0.03 0.04 0.05 0.06 0.06 0.05 0.04 0.04 0.04 0.04 0.03 0.02 0.02 0.02 0.02 0.02 0.02 0.01 0.01 0.01 0.01 0.01 0.02 0.01 0.01 0.01 0.01 0.02 0.03 0.04 0.04 0.03 0.03 0.03 0.03
0.04 0.04 0.06 0.06 0.06 0.05 0.04 0.03 0.05 0.05 0.06 0.06 0.07 0.08 0.08 0.07 0.05 0.03 0.03 0.02 0.02 0.02 0.01 0.01 0.01 0.01 0.01 0.00 0.01 0.01 0.01 0.01 0.01 0.01 0.02 0.02 0.03 0.03 0.03 0.03 0.03 0.04 0.05
0.03 0.04 0.05 0.06 0.06 0.06 0.06 0.06 0.06 0.06 0.06 0.05 0.05 0.05 0.05 0.05 0.04 0.04 0.03 0.03 0.03 0.02 0.02 0.01 0.01 0.01 0.00 0.00 0.01 0.01 0.01 0.01 0.01 0.02 0.02 0.02 0.02 0.02 0.02 0.02 0.03 0.04 0.05
0.06 0.06 0.07 0.07 0.07 0.07 0.08 0.08 0.07 0.07 0.06 0.06 0.05 0.05 0.05 0.04 0.04 0.05 0.05 0.04 0.04 0.04 0.04 0.03 0.02 0.01 0.00 0.00 0.00 0.01 0.01 0.02 0.02 0.02 0.02 0.01 0.02 0.02 0.03 0.03 0.03 0.04 0.06
0.08 0.06 0.07 0.08 0.06 0.07 0.07 0.08 0.10 0.09 0.09 0.08 0.06 0.05 0.04 0.03 0.04 0.04 0.03 0.02 0.03 0.04 0.04 0.02 0.02 0.01 0.01 0.02 0.02 0.02 0.02 0.02 0.02 0.03 0.02 0.02 0.02 0.03 0.04 0.03 0.03 0.03 0.04
0.05 0.05 0.04 0.04 0.03 0.03 0.04 0.05 0.06 0.07 0.07 0.05 0.04 0.04 0.03 0.03 0.03 0.03 0.04 0.04 0.04 0.05 0.03 0.01 0.02 0.02 0.02 0.02 0.01 0.01 0.01 0.02 0.03 0.03 0.03 0.03 0.04 0.05 0.04 0.03 0.03 0.03 0.03
0.04 0.04 0.03 0.03 0.03 0.03 0.03 0.03 0.03 0.04 0.05 0.04 0.04 0.04 0.02 0.02 0.02 0.02 0.03 0.03 0.02 0.02 0.02 0.01 0.02 0.02 0.03 0.03 0.03 0.03 0.03 0.03 0.04 0.06 0.05 0.05 0.05 0.03 0.03 0.02 0.03 0.03 0.03
0.05 0.05 0.04 0.04 0.03 0.03 0.03 0.03 0.03 0.03 0.03 0.02 0.03 0.03 0.03 0.03 0.03 0.03 0.02 0.01 0.01 0.01 0.01 0.02 0.02 0.03 0.03 0.04 0.04 0.04 0.04 0.06 0.06 0.04 0.04 0.04 0.03 0.02 0.02 0.02 0.03 0.03 0.03
0.06 0.06 0.05 0.05 0.04 0.03 0.03 0.03 0.03 0.03 0.03 0.02 0.01 0.02 0.03 0.02 0.02 0.02 0.02 0.01 0.01 0.01 0.02 0.02 0.04 0.05 0.05 0.04 0.04 0.05 0.06 0.06 0.04 0.04 0.04 0.03 0.03 0.03 0.03 0.03 0.03 0.03 0.03
0.06 0.06 0.06 0.05 0.05 0.04 0.03 0.02 0.02 0.02 0.02 0.02 0.02 0.02 0.02 0.02 0.02 0.02 0.02 0.02 0.02 0.02 0.02 0.03 0.04 0.05 0.05 0.05 0.06 0.08 0.07 0.05 0.04 0.04 0.03 0.03 0.03 0.03 0.03 0.03 0.03 0.02 0.02
0.03 0.04 0.05 0.05 0.05 0.05 0.05 0.04 0.03 0.02 0.02 0.03 0.04 0.03 0.03 0.03 0.03 0.03 0.03 0.03 0.02 0.03 0.05 0.05 0.05 0.04 0.04 0.06 0.08 0.08 0.07 0.06 0.06 0.06 0.06 0.05 0.05 0.05 0.04 0.03 0.02 0.02 0.02
0.06 0.05 0.05 0.06 0.06 0.06 0.06 0.05 0.05 0.04 0.03 0.03 0.04 0.05 0.05 0.06 0.06 0.05 0.05 0.04 0.04 0.04 0.07 0.07 0.06 0.05 0.06 0.10 0.14 0.12 0.08 0.07 0.05 0.05 0.06 0.07 0.07 0.05 0.04 0.03 0.02 0.02 0.02
0.05 0.09 0.10 0.08 0.06 0.05 0.05 0.05 0.05 0.05 0.05 0.05 0.05 0.08 0.08 0.10 0.11 0.11 0.11 0.10 0.09 0.06 0.05 0.05 0.04 0.04 0.04 0.05 0.06 0.06 0.05 0.04 0.03 0.03 0.03 0.03 0.02 0.02 0.02 0.01 0.01 0.02 0.02
0.02 0.04 0.07 0.10 0.08 0.06 0.05 0.05 0.04 0.05 0.06 0.06 0.06 0.09 0.12 0.13 0.13 0.13 0.13 0.12 0.09 0.07 0.06 0.05 0.04 0.03 0.03 0.04 0.04 0.03 0.03 0.03 0.03 0.02 0.02 0.01 0.01 0.01 0.01 0.01 0.01 0.01 0.01
0.04 0.04 0.05 0.07 0.08 0.07 0.06 0.07 0.06 0.04 0.04 0.04 0.04 0.04 0.06 0.07 0.08 0.08 0.08 0.07 0.06 0.05 0.04 0.04 0.04 0.03 0.03 0.03 0.03 0.03 0.03 0.03 0.02 0.02 0.01 0.01 0.01 0.01 0.01 0.01 0.00 0.00 0.01
MSLP
1009.86 1010.45 1011.07 1011.67 1012.19 1012.61 1012.93 1013.17 1013.35 1013.52 1013.70 1013.90 1014.14 1014.41 1014.69 1014.96 1015.21 1015.43 1015.62 1015.78 1015.90 1015.98 1016.02 1016.02 1015.98 1015.89 1015.77 1015.65 1015.55 1015.50 1015.53 1015.64 1015.84 1016.11 1016.40 1016.66 1016.87 1016.98 1016.98 1016.89 1016.72 1016.53 1016.35
1009.61 1010.19 1010.80 1011.39 1011.92 1012.37 1012.75 1013.05 1013.31 1013.54 1013.78 1014.03 1014.31 1014.59 1014.88 1015.17 1015.44 1015.69 1015.91 1016.10 1016.26 1016.37 1016.43 1016.43 1016.37 1016.26 1016.11 1015.95 1015.81 1015.74 1015.76 1015.87 1016.08 1016.37 1016.68 1016.97 1017.21 1017.34 1017.35 1017.26 1017.08 1016.86 1016.64
1009.41 1010.00 1010.59 1011.17 1011.69 1012.16 1012.56 1012.91 1013.23 1013.53 1013.84 1014.15 1014.46 1014.78 1015.09 1015.39 1015.67 1015.92 1016.16 1016.37 1016.55 1016.68 1016.76 1016.78 1016.73 1016.62 1016.47 1016.30 1016.16 1016.09 1016.10 1016.21 1016.42 1016.70 1017.02 1017.32 1017.56 1017.70 1017.71 1017.61 1017.42 1017.18 1016.92
1009.23 1009.84 1010.43 1010.99 1011.50 1011.95 1012.37 1012.75 1013.13 1013.50 1013.87 1014.25 1014.62 1014.98 1015.32 1015.62 1015.90 1016.15 1016.38 1016.58 1016.76 1016.90 1017.00 1017.04 1017.01 1016.93 1016.81 1016.67 1016.55 1016.49 1016.50 1016.61 1016.81 1017.07 1017.38 1017.66 1017.89 1018.02 1018.03 1017.93 1017.73 1017.47 1017.19
1009.01 1009.67 1010.27 1010.82 1011.31 1011.75 1012.17 1012.59 1013.01 1013.45 1013.91 1014.36 1014.80 1015.20 1015.57 1015.88 1016.15 1016.38 1016.58 1016.75 1016.91 1017.04 1017.15 1017.21 1017.22 1017.18 1017.11 1017.02 1016.93 1016.89 1016.91 1017.00 1017.18 1017.42 1017.69 1017.94 1018.15 1018.26 1018.27 1018.18 1017.99 1017.73 1017.44
1008.70 1009.43 1010.07 1010.62 1011.10 1011.54 1011.98 1012.42 1012.90 1013.41 1013.94 1014.48 1014.99 1015.45 1015.85 1016.17 1016.42 1016.61 1016.77 1016.90 1017.02 1017.13 1017.23 1017.30 1017.35 1017.36 1017.34 1017.30 1017.25 1017.23 1017.26 1017.34 1017.49 1017.68 1017.91 1018.12 1018.29 1018.40 1018.41 1018.33 1018.16 1017.93 1017.66
1008.28 1009.10 1009.79 1010.38 1010.87 1011.32 1011.78 1012.26 1012.79 1013.37 1013.99 1014.60 1015.19 1015.70 1016.13 1016.46 1016.69 1016.85 1016.96 1017.03 1017.10 1017.18 1017.26 1017.34 1017.42 1017.47 1017.50 1017.50 1017.50 1017.50 1017.53 1017.59 1017.70 1017.84 1018.01 1018.18 1018.32 1018.41 1018.43 1018.37 1018.24 1018.05 1017.83
1007.77 1008.69 1009.45 1010.08 1010.61 1011.10 1011.58 1012.11 1012.70 1013.34 1014.03 1014.72 1015.37 1015.93 1016.39 1016.72 1016.94 1017.06 1017.12 1017.15 1017.17 1017.21 1017.28 1017.36 1017.45 1017.53 1017.60 1017.64 1017.66 1017.68 1017.69 1017.73 1017.79 1017.88 1017.99 1018.11 1018.21 1018.29 1018.32 1018.29 1018.21 1018.08 1017.92
1007.22 1008.23 1009.08 1009.77 1010.35 1010.88 1011.41 1011.98 1012.62 1013.32 1014.07 1014.81 1015.51 1016.11 1016.59 1016.92 1017.13 1017.23 1017.25 1017.24 1017.23 1017.24 1017.28 1017.36 1017.46 1017.56 1017.65 1017.72 1017.75 1017.77 1017.76 1017.76 1017.78 1017.81 1017.86 1017.93 1018.00 1018.06 1018.10 1018.10 1018.07 1017.99 1017.89
1006.70 1007.79 1008.71 1009.47 1010.11 1010.69 1011.27 1011.89 1012.57 1013.31 1014.08 1014.86 1015.58 1016.19 1016.68 1017.01 1017.21 1017.30 1017.31 1017.28 1017.25 1017.24 1017.28 1017.36 1017.46 1017.57 1017.67 1017.74 1017.78 1017.77 1017.75 1017.71 1017.67 1017.64 1017.64 1017.66 1017.69 1017.73 1017.77 1017.79 1017.79 1017.76 1017.70
1006.26 1007.41 1008.40 1009.22 1009.92 1010.56 1011.18 1011.83 1012.53 1013.29 1014.07 1014.84 1015.55 1016.16 1016.64 1016.98 1017.18 1017.26 1017.27 1017.24 1017.22 1017.22 1017.26 1017.34 1017.44 1017.55 1017.65 1017.71 1017.72 1017.70 1017.64 1017.55 1017.47 1017.39 1017.33 1017.30 1017.30 1017.31 1017.33 1017.35 1017.36 1017.36 1017.33
1005.97 1007.15 1008.18 1009.06 1009.81 1010.49 1011.15 1011.82 1012.52 1013.26 1014.02 1014.76 1015.44 1016.02 1016.48 1016.80 1017.00 1017.10 1017.13 1017.13 1017.12 1017.14 1017.19 1017.27 1017.37 1017.47 1017.55 1017.59 1017.57 1017.51 1017.42 1017.29 1017.16 1017.04 1016.94 1016.87 1016.82 1016.80 1016.79 1016.79 1016.79 1016.78 1016.76
1005.83 1007.02 1008.07 1008.98 1009.78 1010.50 1011.18 1011.85 1012.53 1013.23 1013.94 1014.62 1015.24 1015.77 1016.20 1016.51 1016.72 1016.83 1016.89 1016.92 1016.95 1016.99 1017.05 1017.14 1017.23 1017.31 1017.35 1017.36 1017.31 1017.21 1017.08 1016.92 1016.75 1016.59 1016.46 1016.35 1016.27 1016.21 1016.16 1016.13 1016.09 1016.06 1016.01
1005.83 1007.00 1008.06 1008.99 1009.82 1010.55 1011.24 1011.90 1012.55 1013.19 1013.83 1014.43 1014.98 1015.45 1015.84 1016.13 1016.34 1016.48 1016.57 1016.64 1016.70 1016.76 1016.84 1016.92 1016.99 1017.04 1017.04 1017.00 1016.91 1016.78 1016.61 1016.42 1016.23 1016.06 1015.90 1015.77 1015.66 1015.57 1015.49 1015.41 1015.32 1015.24 1015.16
1005.93 1007.07 1008.11 1009.05 1009.89 1010.63 1011.31 1011.95 1012.55 1013.13 1013.69 1014.21 1014.68 1015.09 1015.43 1015.70 1015.91 1016.07 1016.19 1016.29 1016.38 1016.47 1016.55 1016.61 1016.65 1016.66 1016.62 1016.53 1016.40 1016.23 1016.04 1015.84 1015.64 1015.47 1015.31 1015.17 1015.05 1014.93 1014.82 1014.70 1014.56 1014.42 1014.28
1006.08 1007.17 1008.19 1009.12 1009.95 1010.69 1011.36 1011.96 1012.52 1013.03 1013.51 1013.95 1014.35 1014.70 1015.00 1015.26 1015.47 1015.64 1015.78 1015.91 1016.02 1016.11 1016.18 1016.22 1016.22 1016.19 1016.10 1015.97 1015.81 1015.62 1015.42 1015.23 1015.05 1014.89 1014.75 1014.63 1014.51 1014.39 1014.25 1014.09 1013.91 1013.71 1013.51
1006.22 1007.26 1008.24 1009.15 1009.97 1010.70 1011.34 1011.91 1012.42 1012.88 1013.29 1013.66 1014.00 1014.30 1014.57 1014.80 1015.01 1015.20 1015.36 1015.50 1015.62 1015.71 1015.76 1015.78 1015.75 1015.67 1015.55 1015.40 1015.21 1015.03 1014.84 1014.67 1014.53 1014.41 1014.31 1014.22 1014.12 1014.00 1013.85 1013.66 1013.44 1013.20 1012.94
1006.32 1007.30 1008.25 1009.12 1009.92 1010.62 1011.24 1011.77 1012.23 1012.64 1013.00 1013.32 1013.61 1013.87 1014.12 1014.35 1014.56 1014.75 1014.93 1015.08 1015.20 1015.28 1015.32 1015.32 1015.27 1015.17 1015.03 1014.87 1014.70 1014.54 1014.39 1014.27 1014.18 1014.11 1014.06 1014.01 1013.94 1013.83 1013.68 1013.47 1013.21 1012.92 1012.60
1006.37 1007.30 1008.19 1009.03 1009.78 1010.45 1011.03 1011.52 1011.95 1012.31 1012.63 1012.91 1013.17 1013.42 1013.65 1013.88 1014.09 1014.30 1014.48 1014.64 1014.77 1014.85 1014.89 1014.88 1014.82 1014.73 1014.60 1014.47 1014.33 1014.22 1014.13 1014.07 1014.05 1014.05 1014.05 1014.04 1013.99 1013.89 1013.73 1013.50 1013.21 1012.87 1012.50
1006.38 1007.25 1008.09 1008.87 1009.58 1010.20 1010.73 1011.19 1011.57 1011.90 1012.18 1012.44 1012.69 1012.92 1013.16 1013.39 1013.62 1013.84 1014.04 1014.21 1014.35 1014.44 1014.49 1014.49 1014.46 1014.39 1014.31 1014.23 1014.16 1014.11 1014.10 1014.11 1014.16 1014.21 1014.26 1014.27 1014.24 1014.14 1013.97 1013.71 1013.38 1012.99 1012.56
1006.37 1007.18 1007.96 1008.68 1009.33 1009.90 1010.38 1010.78 1011.13 1011.43 1011.69 1011.93 1012.17 1012.41 1012.65 1012.90 1013.15 1013.38 1013.60 1013.79 1013.95 1014.07 1014.14 1014.18 1014.19 1014.18 1014.16 1014.15 1014.16 1014.20 1014.27 1014.35 1014.45 1014.55 1014.62 1014.65 1014.61 1014.49 1014.28 1013.99 1013.61 1013.17 1012.69
1006.37 1007.13 1007.84 1008.50 1009.08 1009.58 1010.01 1010.37 1010.67 1010.94 1011.19 1011.43 1011.67 1011.92 1012.18 1012.44 1012.71 1012.96 1013.21 1013.42 1013.60 1013.75 1013.87 1013.96 1014.03 1014.09 1014.15 1014.23 1014.32 1014.44 1014.57 1014.72 1014.86 1014.98 1015.05 1015.06 1014.98 1014.82 1014.56 1014.22 1013.79 1013.30 1012.77
1006.42 1007.12 1007.77 1008.36 1008.87 1009.31 1009.68 1009.99 1010.27 1010.51 1010.75 1010.99 1011.24 1011.51 1011.78 1012.07 1012.36 1012.63 1012.90 1013.14 1013.35 1013.53 1013.69 1013.84 1013.97 1014.10 1014.24 1014.39 1014.56 1014.74 1014.93 1015.11 1015.26 1015.37 1015.42 1015.38 1015.25 1015.02 1014.70 1014.29 1013.81 1013.28 1012.71
1006.52 1007.17 1007.76 1008.29 1008.74 1009.12 1009.44 1009.72 1009.97 1010.20 1010.44 1010.69 1010.95 1011.24 1011.54 1011.84 1012.15 1012.45 1012.73 1012.99 1013.22 1013.43 1013.62 1013.81 1013.99 1014.18 1014.38 1014.59 1014.81 1015.04 1015.25 1015.43 1015.57 1015.64 1015.63 1015.53 1015.33 1015.03 1014.64 1014.17 1013.64 1013.08 1012.50
1006.70 1007.30 1007.85 1008.32 1008.72 1009.05 1009.34 1009.59 1009.83 1010.06 1010.31 1010.57 1010.86 1011.17 1011.49 1011.81 1012.13 1012.44 1012.73 1012.99 1013.23 1013.45 1013.66 1013.87 1014.08 1014.30 1014.53 1014.77 1015.01 1015.24 1015.45 1015.61 1015.71 1015.72 1015.65 1015.47 1015.19 1014.82 1014.37 1013.86 1013.30 1012.73 1012.15
1006.95 1007.52 1008.02 1008.45 1008.82 1009.12 1009.39 1009.63 1009.87 1010.12 1010.38 1010.67 1010.99 1011.32 1011.66 1012.00 1012.33 1012.63 1012.92 1013.17 1013.40 1013.61 1013.81 1014.01 1014.21 1014.43 1014.66 1014.90 1015.13 1015.34 1015.51 1015.63 1015.67 1015.62 1015.48 1015.23 1014.88 1014.46 1013.96 1013.42 1012.85 1012.29 1011.74
Thickness
5785 5782 5779 5776 5775 5773 5770 5769 5767 5766 5765 5763 5761 5760 5758 5757 5756 5754 5751 5750 5748 5747 5746 5744 5742 5742 5740 5739 5737 5735 5732 5728 5720 5718 5719 5719 5718 5716 5714 5712 5709 5707 5704
5786 5782 5778 5776 5773 5770 5768 5767 5766 5764 5763 5761 5759 5758 5756 5755 5754 5752 5749 5748 5746 5744 5743 5742 5740 5740 5737 5736 5734 5732 5730 5728 5721 5715 5715 5715 5714 5713 5711 5708 5706 5704 5701
5787 5782 5777 5774 5771 5769 5767 5765 5763 5762 5760 5759 5757 5755 5754 5753 5751 5750 5748 5746 5744 5742 5741 5739 5737 5736 5733 5732 5730 5729 5727 5725 5721 5715 5711 5711 5710 5709 5706 5704 5702 5700 5698
5786 5781 5776 5773 5771 5768 5766 5763 5761 5760 5758 5756 5755 5753 5752 5750 5748 5747 5745 5743 5741 5739 5738 5737 5735 5734 5731 5730 5728 5725 5723 5720 5716 5712 5708 5706 5705 5704 5701 5697 5694 5694 5692
5785 5780 5776 5774 5771 5767 5764 5762 5759 5757 5756 5754 5752 5750 5749 5747 5746 5744 5742 5740 5737 5735 5735 5734 5733 5732 5730 5729 5726 5723 5720 5716 5712 5708 5704 5701 5698 5696 5694 5693 5689 5688 5687
5783 5779 5776 5773 5769 5766 5763 5760 5757 5755 5753 5751 5749 5747 5745 5745 5743 5742 5739 5737 5734 5732 5730 5730 5730 5728 5727 5726 5724 5722 5719 5713 5708 5704 5700 5696 5695 5693 5692 5689 5685 5681 5679
5781 5777 5774 5771 5768 5765 5763 5758 5755 5753 5751 5748 5746 5744 5742 5741 5740 5738 5737 5734 5731 5729 5727 5725 5725 5724 5722 5720 5719 5718 5715 5713 5710 5705 5699 5696 5694 5692 5689 5685 5681 5678 5675
5778 5775 5772 5769 5766 5763 5760 5756 5754 5752 5748 5745 5743 5741 5738 5738 5736 5734 5732 5730 5727 5725 5723 5721 5719 5717 5717 5715 5713 5711 5709 5707 5705 5703 5700 5698 5695 5692 5688 5684 5679 5675 5673
5775 5772 5770 5767 5763 5760 5756 5754 5752 5749 5746 5743 5741 5738 5735 5734 5733 5731 5728 5724 5721 5720 5719 5717 5715 5713 5713 5711 5708 5705 5702 5702 5702 5700 5697 5695 5692 5689 5685 5679 5673 5668 5664
5771 5769 5767 5764 5761 5758 5755 5753 5750 5747 5744 5742 5738 5736 5733 5730 5729 5727 5723 5720 5715 5713 5712 5711 5710 5708 5708 5705 5702 5699 5695 5695 5694 5693 5690 5689 5686 5683 5680 5675 5671 5664 5659
5767 5765 5763 5761 5758 5756 5753 5750 5747 5744 5740 5737 5734 5731 5729 5727 5724 5722 5719 5715 5712 5708 5706 5705 5704 5704 5702 5700 5698 5695 5692 5690 5688 5685 5683 5681 5678 5676 5674 5671 5667 5663 5657
5762 5758 5756 5755 5754 5752 5749 5746 5743 5740 5735 5732 5728 5725 5724 5722 5720 5718 5715 5713 5710 5706 5703 5702 5701 5699 5697 5695 5693 5691 5689 5685 5682 5678 5675 5673 5671 5670 5668 5666 5664 5661 5658
5754 5751 5750 5749 5748 5746 5744 5740 5737 5734 5730 5727 5723 5721 5719 5718 5717 5714 5711 5708 5705 5702 5701 5699 5697 5694 5692 5689 5687 5685 5682 5678 5675 5671 5668 5667 5666 5665 5663 5661 5659 5656 5653
5747 5745 5744 5742 5741 5739 5738 5736 5733 5729 5726 5723 5720 5717 5715 5713 5711 5709 5706 5703 5700 5697 5694 5693 5691 5688 5685 5683 5680 5677 5675 5672 5669 5665 5663 5662 5660 5658 5655 5653 5650 5648 5644
5740 5738 5736 5734 5733 5731 5730 5729 5728 5727 5725 5721 5718 5715 5710 5707 5707 5705 5701 5698 5695 5692 5688 5684 5682 5679 5676 5675 5673 5671 5668 5665 5662 5660 5657 5655 5653 5650 5648 5646 5643 5640 5636
5733 5731 5728 5727 5726 5725 5723 5721 5721 5721 5720 5718 5716 5713 5710 5708 5704 5700 5697 5695 5691 5687 5682 5678 5675 5673 5671 5669 5667 5664 5662 5659 5657 5654 5651 5648 5645 5643 5640 5638 5635 5632 5629
5727 5724 5722 5720 5719 5718 5716 5714 5711 5711 5711 5711 5709 5707 5705 5702 5698 5694 5690 5687 5683 5679 5675 5673 5671 5668 5666 5665 5662 5659 5657 5655 5652 5649 5645 5642 5640 5637 5633 5630 5628 5625 5622
5720 5718 5716 5714 5713 5711 5710 5708 5706 5703 5701 5700 5701 5700 5698 5695 5691 5686 5682 5677 5673 5671 5671 5669 5667 5664 5662 5660 5657 5655 5652 5650 5646 5643 5640 5636 5633 5630 5627 5623 5621 5618 5615
5712 5710 5709 5707 5706 5704 5703 5701 5700 5698 5696 5694 5692 5690 5689 5686 5683 5679 5674 5671 5670 5668 5666 5665 5663 5661 5658 5655 5653 5650 5647 5644 5640 5637 5634 5631 5627 5624 5621 5618 5614 5611 5608
5703 5703 5702 5700 5698 5696 5695 5694 5692 5691 5689 5687 5686 5684 5681 5677 5673 5671 5668 5666 5665 5664 5662 5660 5658 5656 5653 5650 5647 5644 5641 5638 5635 5631 5628 5625 5621 5618 5615 5612 5608 5605 5602
5692 5693 5693 5691 5690 5689 5688 5686 5685 5684 5682 5681 5680 5680 5677 5673 5670 5668 5665 5663 5661 5660 5657 5655 5652 5650 5647 5645 5642 5639 5635 5631 5628 5624 5621 5618 5615 5612 5609 5606 5603 5599 5597
5683 5683 5683 5682 5682 5681 5679 5678 5677 5676 5676 5674 5673 5672 5668 5666 5664 5662 5660 5659 5657 5655 5653 5650 5647 5644 5642 5639 5636 5633 5629 5625 5621 5617 5614 5611 5608 5605 5602 5599 5596 5592 5589
5675 5675 5674 5674 5674 5672 5670 5669 5668 5667 5667 5666 5665 5663 5660 5659 5657 5656 5655 5653 5651 5648 5646 5643 5640 5637 5635 5633 5630 5626 5623 5619 5615 5612 5608 5604 5601 5599 5595 5591 5588 5585 5583
5666 5666 5665 5665 5664 5663 5661 5660 5658 5658 5657 5656 5656 5655 5653 5652 5651 5650 5649 5647 5644 5641 5639 5636 5633 5630 5628 5625 5622 5619 5616 5613 5610 5607 5603 5599 5595 5592 5588 5585 5583 5580 5577
5658 5658 5657 5656 5655 5654 5652 5651 5650 5649 5648 5648 5647 5646 5645 5645 5644 5642 5641 5638 5636 5633 5631 5629 5626 5622 5619 5616 5613 5610 5607 5605 5603 5600 5597 5593 5589 5585 5582 5579 5576 5574 5570
5650 5649 5648 5647 5646 5645 5644 5642 5641 5640 5639 5640 5640 5639 5638 5636 5635 5633 5631 5629 5626 5623 5621 5618 5616 5613 5610 5607 5605 5602 5599 5597 5595 5592 5589 5585 5581 5578 5575 5572 5569 5566 5564